TimeCST,TemperatureF,Dew PointF,Humidity,Sea Level PressureIn,VisibilityMPH,Wind Direction,Wind SpeedMPH,Gust SpeedMPH,PrecipitationIn,Events,Conditions,WindDirDegrees,DateUTC
12:52 AM,10.9,1.9,67,30.71,10.0,NNW,21.9,27.6,N/A,,Clear,340,2013-11-23 06:52:00
1:52 AM,9.0,1.9,73,30.73,10.0,NNW,18.4,-,N/A,,Clear,340,2013-11-23 07:52:00
2:52 AM,8.1,1.9,76,30.74,10.0,NNW,21.9,-,N/A,,Clear,340,2013-11-23 08:52:00
3:52 AM,6.1,1.0,80,30.78,10.0,NNW,17.3,23.0,N/A,,Clear,330,2013-11-23 09:52:00
4:52 AM,5.0,1.0,84,30.81,10.0,NNW,13.8,-,N/A,,Clear,340,2013-11-23 10:52:00
5:52 AM,5.0,1.0,84,30.83,10.0,NNW,16.1,-,N/A,,Clear,340,2013-11-23 11:52:00
6:52 AM,3.9,-0.0,84,30.87,10.0,NNW,17.3,-,N/A,,Clear,330,2013-11-23 12:52:00
7:52 AM,3.9,-0.0,84,30.89,10.0,NNW,16.1,-,N/A,,Clear,330,2013-11-23 13:52:00
8:52 AM,6.1,1.9,83,30.91,10.0,NNW,13.8,-,N/A,,Clear,330,2013-11-23 14:52:00
9:52 AM,10.0,3.0,73,30.91,10.0,North,16.1,-,N/A,,Clear,350,2013-11-23 15:52:00
10:52 AM,12.9,3.9,67,30.90,10.0,North,11.5,-,N/A,,Clear,350,2013-11-23 16:52:00
11:52 AM,16.0,1.9,54,30.90,10.0,North,11.5,-,N/A,,Clear,360,2013-11-23 17:52:00
12:52 PM,17.1,1.0,50,30.88,10.0,North,11.5,-,N/A,,Clear,360,2013-11-23 18:52:00
1:52 PM,18.0,1.9,50,30.86,10.0,North,11.5,-,N/A,,Clear,350,2013-11-23 19:52:00
2:52 PM,18.0,1.9,50,30.87,10.0,NNW,9.2,-,N/A,,Clear,340,2013-11-23 20:52:00
3:52 PM,17.1,1.0,50,30.87,10.0,NW,9.2,-,N/A,,Clear,310,2013-11-23 21:52:00
4:52 PM,12.9,1.0,59,30.84,10.0,North,6.9,-,N/A,,Clear,360,2013-11-23 22:52:00
5:52 PM,8.1,-0.9,67,30.84,10.0,West,3.5,-,N/A,,Clear,280,2013-11-23 23:52:00
6:52 PM,9.0,-0.9,64,30.84,10.0,Calm,Calm,-,N/A,,Clear,0,2013-11-24 00:52:00
7:52 PM,6.1,-2.9,67,30.83,10.0,Calm,Calm,-,N/A,,Clear,0,2013-11-24 01:52:00
8:52 PM,1.9,-2.9,80,30.83,10.0,SW,3.5,-,N/A,,Clear,220,2013-11-24 02:52:00
9:52 PM,3.9,-2.0,76,30.81,10.0,SSW,3.5,-,N/A,,Clear,210,2013-11-24 03:52:00
10:52 PM,1.9,-2.9,80,30.79,10.0,SSW,4.6,-,N/A,,Clear,200,2013-11-24 04:52:00
11:52 PM,1.9,-2.9,80,30.78,10.0,SSW,4.6,-,N/A,,Clear,200,2013-11-24 05:52:00